Time,TemperatureF,DewpointF,PressureIn,WindDirection,WindDirectionDegrees,WindSpeedMPH,WindSpeedGustMPH,Humidity,HourlyPrecipIn,Conditions,Clouds,dailyrainin,SolarRadiationWatts/m^2,SoftwareType,DateUTC
2013-03-31 00:02:00,55.2,53.6,29.94,SW,225,7.0,16.0,94,0.02,,,0.09,0.0,meteohub,2013-03-31 07:02:00,
2013-03-31 00:07:00,55.2,53.6,29.95,WSW,243,12.0,12.0,94,0.02,,,0.09,0.0,meteohub,2013-03-31 07:07:00,
2013-03-31 00:12:00,55.2,53.6,29.95,South,188,3.0,18.0,94,0.03,,,0.10,0.0,meteohub,2013-03-31 07:12:00,
2013-03-31 00:17:00,55.4,53.8,29.95,SW,229,7.0,18.0,94,0.03,,,0.10,0.0,meteohub,2013-03-31 07:17:00,
2013-03-31 00:22:00,55.4,53.8,29.95,SW,236,10.0,18.0,94,0.03,,,0.10,0.0,meteohub,2013-03-31 07:22:00,
2013-03-31 00:27:00,55.4,53.8,29.95,SW,232,9.0,15.0,94,0.03,,,0.10,0.0,meteohub,2013-03-31 07:27:00,
2013-03-31 00:32:00,55.4,53.8,29.95,SW,233,3.0,13.0,94,0.02,,,0.10,0.0,meteohub,2013-03-31 07:32:00,
2013-03-31 00:37:00,55.4,53.8,29.95,SW,230,6.0,12.0,94,0.02,,,0.10,0.0,meteohub,2013-03-31 07:37:00,
2013-03-31 00:42:00,55.2,53.6,29.95,SW,219,8.0,13.0,94,0.01,,,0.10,0.0,meteohub,2013-03-31 07:42:00,
2013-03-31 00:47:00,55.2,53.6,29.94,SW,225,6.0,17.0,94,0.01,,,0.10,0.0,meteohub,2013-03-31 07:47:00,
2013-03-31 00:52:00,55.0,53.1,29.94,SW,226,3.0,17.0,93,0.01,,,0.10,0.0,meteohub,2013-03-31 07:52:00,
2013-03-31 00:57:00,55.0,53.1,29.93,WSW,242,1.0,13.0,93,0.01,,,0.10,0.0,meteohub,2013-03-31 07:57:00,
2013-03-31 01:02:00,55.0,53.1,29.92,West,274,3.0,13.0,93,0.01,,,0.10,0.0,meteohub,2013-03-31 08:02:00,
2013-03-31 01:07:00,55.0,53.1,29.93,SW,231,5.0,9.0,93,0.01,,,0.10,0.0,meteohub,2013-03-31 08:07:00,
2013-03-31 01:12:00,54.9,52.9,29.93,West,278,4.0,7.0,93,0.00,,,0.10,0.0,meteohub,2013-03-31 08:12:00,
2013-03-31 01:17:00,54.9,52.9,29.93,WSW,245,3.0,9.0,93,0.00,,,0.10,0.0,meteohub,2013-03-31 08:17:00,
2013-03-31 01:22:00,54.7,52.7,29.93,WSW,247,9.0,10.0,93,0.00,,,0.10,0.0,meteohub,2013-03-31 08:22:00,
2013-03-31 01:27:00,54.7,52.7,29.92,WSW,252,3.0,10.0,93,0.00,,,0.10,0.0,meteohub,2013-03-31 08:27:00,
2013-03-31 01:32:00,54.7,53.1,29.93,SSW,213,3.0,10.0,94,0.00,,,0.10,0.0,meteohub,2013-03-31 08:32:00,
2013-03-31 01:37:00,54.7,52.7,29.94,SW,230,0.0,10.0,93,0.00,,,0.10,0.0,meteohub,2013-03-31 08:37:00,
2013-03-31 01:42:00,54.7,53.1,29.94,SE,145,4.0,9.0,94,0.00,,,0.10,0.0,meteohub,2013-03-31 08:42:00,
2013-03-31 01:47:00,54.7,52.3,29.94,SW,217,3.0,8.0,92,0.00,,,0.10,0.0,meteohub,2013-03-31 08:47:00,
2013-03-31 01:53:00,54.9,52.5,29.95,South,184,5.0,15.0,92,0.00,,,0.10,0.0,meteohub,2013-03-31 08:53:00,
2013-03-31 01:58:00,54.9,52.5,29.95,South,190,5.0,15.0,92,0.00,,,0.10,0.0,meteohub,2013-03-31 08:58:00,
2013-03-31 02:03:00,55.0,52.5,29.95,SSW,194,2.0,15.0,91,0.00,,,0.10,0.0,meteohub,2013-03-31 09:03:00,
2013-03-31 02:08:00,55.0,52.5,29.95,SSW,200,4.0,9.0,91,0.00,,,0.10,0.0,meteohub,2013-03-31 09:08:00,
2013-03-31 02:13:00,55.0,52.7,29.95,SSW,212,2.0,9.0,92,0.00,,,0.10,0.0,meteohub,2013-03-31 09:13:00,
2013-03-31 02:18:00,55.0,52.7,29.95,SSW,192,5.0,6.0,92,0.00,,,0.10,0.0,meteohub,2013-03-31 09:18:00,
2013-03-31 02:23:00,55.0,52.7,29.96,South,178,5.0,7.0,92,0.00,,,0.10,0.0,meteohub,2013-03-31 09:23:00,
2013-03-31 02:28:00,54.9,52.3,29.96,SSE,148,3.0,9.0,91,0.00,,,0.10,0.0,meteohub,2013-03-31 09:28:00,
2013-03-31 02:33:00,54.9,52.3,29.96,SSE,157,9.0,11.0,91,0.00,,,0.10,0.0,meteohub,2013-03-31 09:33:00,
2013-03-31 02:38:00,54.9,52.3,29.96,SSE,160,1.0,14.0,91,0.00,,,0.10,0.0,meteohub,2013-03-31 09:38:00,
2013-03-31 02:43:00,54.9,52.5,29.96,SSE,159,2.0,14.0,92,0.00,,,0.10,0.0,meteohub,2013-03-31 09:43:00,
2013-03-31 02:48:00,54.7,52.3,29.96,SSE,165,3.0,14.0,92,0.00,,,0.10,0.0,meteohub,2013-03-31 09:48:00,
2013-03-31 02:53:00,54.7,52.2,29.96,SE,143,4.0,12.0,91,0.00,,,0.10,0.0,meteohub,2013-03-31 09:53:00,
2013-03-31 02:58:00,54.7,52.3,29.96,SW,236,5.0,13.0,92,0.00,,,0.10,0.0,meteohub,2013-03-31 09:58:00,
2013-03-31 03:03:00,54.5,52.2,29.96,SW,219,1.0,13.0,92,0.00,,,0.10,0.0,meteohub,2013-03-31 10:03:00,
2013-03-31 03:08:00,54.5,52.2,29.96,SSE,161,9.0,13.0,92,0.00,,,0.10,0.0,meteohub,2013-03-31 10:08:00,
2013-03-31 03:13:00,54.3,52.0,29.96,South,184,5.0,10.0,92,0.00,,,0.10,0.0,meteohub,2013-03-31 10:13:00,
2013-03-31 03:18:00,54.1,51.8,29.97,South,169,4.0,10.0,92,0.00,,,0.10,0.0,meteohub,2013-03-31 10:18:00,
2013-03-31 03:23:00,54.0,51.4,29.97,SSW,205,2.0,13.0,91,0.00,,,0.10,0.0,meteohub,2013-03-31 10:23:00,
2013-03-31 03:28:00,54.0,51.4,29.97,SW,235,3.0,13.0,91,0.00,,,0.10,0.0,meteohub,2013-03-31 10:28:00,
2013-03-31 03:33:00,54.0,51.4,29.97,WSW,242,5.0,13.0,91,0.00,,,0.10,0.0,meteohub,2013-03-31 10:33:00,
2013-03-31 03:38:00,53.8,51.4,29.97,SSW,202,3.0,11.0,92,0.00,,,0.10,0.0,meteohub,2013-03-31 10:38:00,
2013-03-31 03:43:00,53.8,51.4,29.97,WSW,244,3.0,7.0,92,0.00,,,0.10,0.0,meteohub,2013-03-31 10:43:00,
2013-03-31 03:48:00,53.4,51.1,29.97,WSW,241,1.0,7.0,92,0.00,,,0.10,0.0,meteohub,2013-03-31 10:48:00,
2013-03-31 03:53:00,53.4,51.1,29.97,WSW,251,2.0,6.0,92,0.00,,,0.10,0.0,meteohub,2013-03-31 10:53:00,
2013-03-31 03:58:00,53.4,51.1,29.97,WNW,293,2.0,5.0,92,0.00,,,0.10,0.0,meteohub,2013-03-31 10:58:00,
2013-03-31 04:03:00,53.4,51.1,29.96,WNW,284,2.0,5.0,92,0.00,,,0.10,0.0,meteohub,2013-03-31 11:03:00,
2013-03-31 04:08:00,53.4,51.1,29.97,WSW,252,1.0,3.0,92,0.00,,,0.10,0.0,meteohub,2013-03-31 11:08:00,
2013-03-31 04:13:00,53.4,51.1,29.96,WNW,283,1.0,6.0,92,0.00,,,0.10,0.0,meteohub,2013-03-31 11:13:00,
2013-03-31 04:18:00,53.2,50.9,29.96,North,349,1.0,6.0,92,0.00,,,0.10,0.0,meteohub,2013-03-31 11:18:00,
2013-03-31 04:23:00,53.4,50.9,29.97,NNW,327,1.0,6.0,91,0.00,,,0.10,0.0,meteohub,2013-03-31 11:23:00,
2013-03-31 04:28:00,53.4,50.9,29.96,NW,322,1.0,4.0,91,0.00,,,0.10,0.0,meteohub,2013-03-31 11:28:00,
2013-03-31 04:33:00,53.4,50.9,29.96,NNW,341,2.0,4.0,91,0.00,,,0.10,0.0,meteohub,2013-03-31 11:33:00,
2013-03-31 04:38:00,53.4,50.5,29.96,ENE,64,3.0,4.0,90,0.00,,,0.10,0.0,meteohub,2013-03-31 11:38:00,
2013-03-31 04:43:00,53.6,50.7,29.96,SSW,194,0.0,4.0,90,0.00,,,0.10,0.0,meteohub,2013-03-31 11:43:00,
2013-03-31 04:48:00,53.8,50.9,29.96,WNW,302,1.0,4.0,90,0.00,,,0.10,0.0,meteohub,2013-03-31 11:48:00,
2013-03-31 04:53:00,53.8,50.5,29.96,NE,56,2.0,4.0,89,0.00,,,0.10,0.0,meteohub,2013-03-31 11:53:00,
2013-03-31 04:58:00,54.0,50.7,29.96,ENE,75,3.0,4.0,89,0.00,,,0.10,0.0,meteohub,2013-03-31 11:58:00,
2013-03-31 05:03:00,54.1,50.7,29.97,ESE,118,0.0,5.0,88,0.00,,,0.10,0.0,meteohub,2013-03-31 12:03:00,
2013-03-31 05:08:00,54.1,50.7,29.97,South,179,1.0,5.0,88,0.00,,,0.10,0.0,meteohub,2013-03-31 12:08:00,
2013-03-31 05:13:00,54.1,50.7,29.96,NNE,26,1.0,5.0,88,0.00,,,0.10,0.0,meteohub,2013-03-31 12:13:00,
2013-03-31 05:18:00,54.0,50.5,29.96,NE,36,0.0,5.0,88,0.00,,,0.10,0.0,meteohub,2013-03-31 12:18:00,
2013-03-31 05:23:00,54.0,50.7,29.97,NE,36,0.0,5.0,89,0.00,,,0.10,0.0,meteohub,2013-03-31 12:23:00,
2013-03-31 05:28:00,54.0,50.7,29.97,NE,36,0.0,4.0,89,0.00,,,0.10,0.0,meteohub,2013-03-31 12:28:00,
2013-03-31 05:33:00,54.0,51.1,29.97,NE,36,0.0,2.0,90,0.00,,,0.10,0.0,meteohub,2013-03-31 12:33:00,
2013-03-31 05:38:00,54.0,50.7,29.97,WNW,294,0.0,1.0,89,0.00,,,0.10,0.0,meteohub,2013-03-31 12:38:00,
2013-03-31 05:44:00,54.0,51.1,29.97,NW,312,2.0,2.0,90,0.00,,,0.10,0.0,meteohub,2013-03-31 12:44:00,
2013-03-31 05:49:00,54.0,51.1,29.97,NW,311,1.0,6.0,90,0.00,,,0.10,0.0,meteohub,2013-03-31 12:49:00,
2013-03-31 05:54:00,54.0,51.4,29.97,NW,311,1.0,6.0,91,0.00,,,0.10,0.0,meteohub,2013-03-31 12:54:00,
2013-03-31 05:59:00,54.0,51.4,29.97,NW,319,1.0,5.0,91,0.00,,,0.10,0.0,meteohub,2013-03-31 12:59:00,
2013-03-31 06:04:00,53.8,51.3,29.97,NW,319,0.0,4.0,91,0.00,,,0.10,0.0,meteohub,2013-03-31 13:04:00,
2013-03-31 06:09:00,53.8,51.3,29.98,NW,319,0.0,4.0,91,0.00,,,0.10,0.0,meteohub,2013-03-31 13:09:00,
2013-03-31 06:14:00,53.8,51.3,29.97,NW,319,0.0,4.0,91,0.00,,,0.10,0.0,meteohub,2013-03-31 13:14:00,
2013-03-31 06:19:00,53.8,51.3,29.97,NW,319,1.0,2.0,91,0.00,,,0.10,0.0,meteohub,2013-03-31 13:19:00,
2013-03-31 06:24:00,53.8,51.3,29.97,ENE,69,1.0,1.0,91,0.00,,,0.10,0.0,meteohub,2013-03-31 13:24:00,
2013-03-31 06:29:00,53.8,51.3,29.97,NNE,26,5.0,5.0,91,0.00,,,0.10,0.0,meteohub,2013-03-31 13:29:00,
2013-03-31 06:34:00,53.8,51.3,29.97,NE,55,2.0,5.0,91,0.00,,,0.10,0.0,meteohub,2013-03-31 13:34:00,
2013-03-31 06:39:00,53.8,51.4,29.97,NNE,22,1.0,5.0,92,0.00,,,0.10,0.0,meteohub,2013-03-31 13:39:00,
2013-03-31 06:44:00,53.8,51.4,29.97,NE,53,1.0,5.0,92,0.00,,,0.10,0.0,meteohub,2013-03-31 13:44:00,
2013-03-31 06:49:00,53.8,51.4,29.98,NE,45,2.0,4.0,92,0.00,,,0.10,0.0,meteohub,2013-03-31 13:49:00,
2013-03-31 06:54:00,53.8,51.4,29.98,NE,45,0.0,4.0,92,0.00,,,0.10,0.0,meteohub,2013-03-31 13:54:00,
2013-03-31 06:59:00,53.8,51.4,29.98,NE,45,0.0,4.0,92,0.00,,,0.10,5.0,meteohub,2013-03-31 13:59:00,
2013-03-31 07:04:00,53.8,51.8,29.98,NE,45,0.0,3.0,93,0.00,,,0.10,11.0,meteohub,2013-03-31 14:04:00,
2013-03-31 07:09:00,54.0,51.6,29.98,WSW,242,1.0,2.0,92,0.00,,,0.10,14.0,meteohub,2013-03-31 14:09:00,
2013-03-31 07:14:00,54.0,51.6,29.98,SW,228,2.0,3.0,92,0.01,,,0.10,18.0,meteohub,2013-03-31 14:14:00,
2013-03-31 07:19:00,54.1,51.8,29.99,SW,228,0.0,3.0,92,0.01,,,0.11,14.0,meteohub,2013-03-31 14:19:00,
2013-03-31 07:24:00,54.3,52.0,29.98,SW,228,0.0,3.0,92,0.01,,,0.11,12.0,meteohub,2013-03-31 14:24:00,
2013-03-31 07:29:00,54.3,52.0,29.98,SW,228,0.0,3.0,92,0.01,,,0.11,19.0,meteohub,2013-03-31 14:29:00,
2013-03-31 07:34:00,54.3,52.0,29.98,NW,319,0.0,0.0,92,0.01,,,0.11,37.0,meteohub,2013-03-31 14:34:00,
2013-03-31 07:39:00,54.3,51.8,29.99,NW,319,0.0,2.0,91,0.01,,,0.11,37.0,meteohub,2013-03-31 14:39:00,
2013-03-31 07:44:00,54.5,52.0,29.99,SSW,196,0.0,2.0,91,0.01,,,0.11,62.0,meteohub,2013-03-31 14:44:00,
2013-03-31 07:49:00,54.5,52.0,29.99,SSW,196,0.0,2.0,91,0.01,,,0.11,65.0,meteohub,2013-03-31 14:49:00,
2013-03-31 07:54:00,54.7,51.8,29.99,South,185,0.0,1.0,90,0.01,,,0.11,102.0,meteohub,2013-03-31 14:54:00,
2013-03-31 07:59:00,54.9,52.0,29.99,South,185,0.0,1.0,90,0.01,,,0.11,88.0,meteohub,2013-03-31 14:59:00,
2013-03-31 08:04:00,55.0,52.5,29.99,South,185,0.0,1.0,91,0.01,,,0.11,125.0,meteohub,2013-03-31 15:04:00,
2013-03-31 08:09:00,55.2,52.3,29.99,South,185,0.0,1.0,90,0.01,,,0.11,109.0,meteohub,2013-03-31 15:09:00,
2013-03-31 08:14:00,55.4,52.5,29.99,ENE,74,0.0,1.0,90,0.00,,,0.11,84.0,meteohub,2013-03-31 15:14:00,
2013-03-31 08:19:00,55.4,52.2,29.99,East,96,0.0,1.0,89,0.00,,,0.11,79.0,meteohub,2013-03-31 15:19:00,
2013-03-31 08:24:00,55.8,52.5,29.99,East,96,0.0,3.0,89,0.00,,,0.11,262.0,meteohub,2013-03-31 15:24:00,
2013-03-31 08:29:00,56.5,52.9,29.99,ESE,111,1.0,3.0,88,0.00,,,0.11,260.0,meteohub,2013-03-31 15:29:00,
2013-03-31 08:34:00,56.7,52.9,29.99,SSE,164,1.0,2.0,87,0.00,,,0.11,186.0,meteohub,2013-03-31 15:34:00,
2013-03-31 08:39:00,56.8,53.1,29.99,ESE,123,1.0,3.0,87,0.00,,,0.11,271.0,meteohub,2013-03-31 15:39:00,
2013-03-31 08:44:00,57.0,53.4,29.99,ESE,123,0.0,3.0,88,0.00,,,0.11,327.0,meteohub,2013-03-31 15:44:00,
2013-03-31 08:49:00,57.0,52.9,29.99,SE,128,0.0,3.0,86,0.00,,,0.11,216.0,meteohub,2013-03-31 15:49:00,
2013-03-31 08:54:00,57.4,53.2,29.99,ESE,120,1.0,3.0,86,0.00,,,0.11,220.0,meteohub,2013-03-31 15:54:00,
2013-03-31 08:59:00,57.9,53.8,29.99,ESE,121,3.0,5.0,86,0.00,,,0.11,204.0,meteohub,2013-03-31 15:59:00,
2013-03-31 09:04:00,57.7,54.0,29.99,SE,128,1.0,5.0,87,0.00,,,0.11,199.0,meteohub,2013-03-31 16:04:00,
2013-03-31 09:09:00,58.5,54.9,29.99,SE,143,0.0,5.0,88,0.00,,,0.11,508.0,meteohub,2013-03-31 16:09:00,
2013-03-31 09:14:00,59.0,53.8,29.99,South,184,2.0,4.0,83,0.00,,,0.11,497.0,meteohub,2013-03-31 16:14:00,
2013-03-31 09:19:00,58.5,53.2,29.99,SE,143,6.0,6.0,83,0.00,,,0.11,308.0,meteohub,2013-03-31 16:19:00,
2013-03-31 09:24:00,58.3,53.8,29.99,ESE,123,4.0,9.0,85,0.00,,,0.11,283.0,meteohub,2013-03-31 16:24:00,
2013-03-31 09:29:00,58.6,54.1,29.99,East,90,9.0,10.0,85,0.00,,,0.11,506.0,meteohub,2013-03-31 16:29:00,
2013-03-31 09:34:00,58.8,54.0,29.99,ESE,122,1.0,10.0,84,0.00,,,0.11,548.0,meteohub,2013-03-31 16:34:00,
2013-03-31 09:39:00,59.5,54.7,29.99,SE,140,2.0,10.0,84,0.00,,,0.11,559.0,meteohub,2013-03-31 16:39:00,
2013-03-31 09:44:00,59.4,53.8,29.99,SSE,155,3.0,10.0,82,0.00,,,0.11,577.0,meteohub,2013-03-31 16:44:00,
2013-03-31 09:49:00,59.4,53.8,29.99,ESE,115,3.0,9.0,82,0.00,,,0.11,642.0,meteohub,2013-03-31 16:49:00,
2013-03-31 09:54:00,60.4,54.3,29.99,South,188,3.0,11.0,80,0.00,,,0.11,297.0,meteohub,2013-03-31 16:54:00,
2013-03-31 10:00:00,59.5,53.4,29.99,SSE,150,2.0,11.0,80,0.00,,,0.11,297.0,meteohub,2013-03-31 17:00:00,
2013-03-31 10:05:00,59.5,53.8,29.99,SSE,155,4.0,11.0,81,0.00,,,0.11,754.0,meteohub,2013-03-31 17:05:00,
2013-03-31 10:10:00,60.1,54.3,29.99,SSE,147,2.0,11.0,81,0.00,,,0.11,830.0,meteohub,2013-03-31 17:10:00,
2013-03-31 10:15:00,60.1,54.0,29.99,SE,146,3.0,10.0,80,0.00,,,0.11,316.0,meteohub,2013-03-31 17:15:00,
2013-03-31 10:20:00,61.0,54.1,29.99,South,175,4.0,10.0,78,0.00,,,0.11,740.0,meteohub,2013-03-31 17:20:00,
2013-03-31 10:25:00,61.0,53.1,29.99,South,173,4.0,10.0,75,0.00,,,0.11,765.0,meteohub,2013-03-31 17:25:00,
2013-03-31 10:30:00,61.0,52.0,29.99,SSE,147,5.0,12.0,72,0.00,,,0.11,708.0,meteohub,2013-03-31 17:30:00,
2013-03-31 10:35:00,60.6,51.6,29.99,SSE,155,5.0,12.0,72,0.00,,,0.11,719.0,meteohub,2013-03-31 17:35:00,
2013-03-31 10:40:00,61.5,53.6,29.99,South,177,2.0,12.0,75,0.00,,,0.11,724.0,meteohub,2013-03-31 17:40:00,
2013-03-31 10:45:00,61.7,52.5,29.99,SE,140,1.0,12.0,72,0.00,,,0.11,729.0,meteohub,2013-03-31 17:45:00,
2013-03-31 10:50:00,62.2,53.4,29.99,SE,140,4.0,12.0,73,0.00,,,0.11,816.0,meteohub,2013-03-31 17:50:00,
2013-03-31 10:55:00,62.4,52.9,29.99,SSW,206,7.0,10.0,71,0.00,,,0.11,490.0,meteohub,2013-03-31 17:55:00,
2013-03-31 11:00:00,61.7,52.5,29.99,SE,130,3.0,10.0,72,0.00,,,0.11,380.0,meteohub,2013-03-31 18:00:00,
2013-03-31 11:05:00,61.9,52.3,29.99,ESE,114,6.0,11.0,71,0.00,,,0.11,267.0,meteohub,2013-03-31 18:05:00,
2013-03-31 11:10:00,61.0,52.0,29.99,ESE,117,2.0,11.0,72,0.00,,,0.11,316.0,meteohub,2013-03-31 18:10:00,
2013-03-31 11:15:00,61.2,52.9,29.99,SSE,149,5.0,10.0,74,0.00,,,0.11,345.0,meteohub,2013-03-31 18:15:00,
2013-03-31 11:20:00,61.3,53.4,29.99,SE,140,1.0,10.0,75,0.00,,,0.11,322.0,meteohub,2013-03-31 18:20:00,
2013-03-31 11:25:00,61.3,53.1,30.00,East,88,6.0,9.0,74,0.00,,,0.11,243.0,meteohub,2013-03-31 18:25:00,
2013-03-31 11:30:00,61.2,53.2,29.99,SE,136,6.0,7.0,75,0.00,,,0.11,218.0,meteohub,2013-03-31 18:30:00,
2013-03-31 11:35:00,60.4,52.5,30.00,SE,126,5.0,10.0,75,0.00,,,0.11,295.0,meteohub,2013-03-31 18:35:00,
2013-03-31 11:40:00,60.8,52.9,29.99,South,182,6.0,11.0,75,0.00,,,0.11,374.0,meteohub,2013-03-31 18:40:00,
2013-03-31 11:45:00,62.1,53.2,29.99,South,188,4.0,11.0,73,0.00,,,0.11,1086.0,meteohub,2013-03-31 18:45:00,
2013-03-31 11:50:00,62.1,52.9,30.00,South,181,4.0,11.0,72,0.00,,,0.11,359.0,meteohub,2013-03-31 18:50:00,
2013-03-31 11:55:00,61.9,52.7,30.00,SSE,157,9.0,11.0,72,0.00,,,0.11,220.0,meteohub,2013-03-31 18:55:00,
2013-03-31 12:00:00,61.2,52.0,30.00,SSE,161,2.0,11.0,72,0.00,,,0.11,294.0,meteohub,2013-03-31 19:00:00,
2013-03-31 12:05:00,60.6,53.1,30.00,SSE,155,3.0,11.0,76,0.00,,,0.11,250.0,meteohub,2013-03-31 19:05:00,
2013-03-31 12:10:00,60.4,53.2,30.00,SSE,151,3.0,11.0,77,0.00,,,0.11,211.0,meteohub,2013-03-31 19:10:00,
2013-03-31 12:15:00,60.3,53.1,30.00,SSW,193,4.0,11.0,77,0.00,,,0.11,257.0,meteohub,2013-03-31 19:15:00,
2013-03-31 12:20:00,60.4,54.0,30.00,WNW,293,2.0,10.0,79,0.00,,,0.11,267.0,meteohub,2013-03-31 19:20:00,
2013-03-31 12:25:00,59.7,53.6,30.00,NW,324,1.0,7.0,80,0.00,,,0.11,267.0,meteohub,2013-03-31 19:25:00,
2013-03-31 12:30:00,59.5,53.4,29.99,WSW,253,1.0,6.0,80,0.00,,,0.11,264.0,meteohub,2013-03-31 19:30:00,
2013-03-31 12:35:00,60.3,52.7,29.99,WSW,246,3.0,5.0,76,0.00,,,0.11,200.0,meteohub,2013-03-31 19:35:00,
2013-03-31 12:40:00,60.4,53.2,29.99,WNW,300,2.0,4.0,77,0.00,,,0.11,202.0,meteohub,2013-03-31 19:40:00,
2013-03-31 12:45:00,60.6,54.7,29.99,NW,323,5.0,5.0,81,0.00,,,0.11,199.0,meteohub,2013-03-31 19:45:00,
2013-03-31 12:50:00,60.1,54.9,29.99,NW,310,9.0,9.0,83,0.00,,,0.11,123.0,meteohub,2013-03-31 19:50:00,
2013-03-31 12:55:00,59.2,54.3,29.99,North,355,4.0,10.0,84,0.00,,,0.11,121.0,meteohub,2013-03-31 19:55:00,
2013-03-31 13:00:00,58.5,54.0,29.98,WNW,290,5.0,11.0,85,0.00,,,0.11,135.0,meteohub,2013-03-31 20:00:00,
2013-03-31 13:05:00,58.5,54.7,29.99,WNW,292,8.0,11.0,87,0.00,,,0.11,213.0,meteohub,2013-03-31 20:05:00,
2013-03-31 13:10:00,58.5,54.9,29.99,NW,304,2.0,10.0,88,0.00,,,0.11,216.0,meteohub,2013-03-31 20:10:00,
2013-03-31 13:15:00,58.5,54.9,29.99,WNW,283,3.0,10.0,88,0.00,,,0.11,264.0,meteohub,2013-03-31 20:15:00,
2013-03-31 13:20:00,58.6,54.5,29.98,WNW,296,6.0,10.0,86,0.00,,,0.11,253.0,meteohub,2013-03-31 20:20:00,
2013-03-31 13:25:00,58.8,54.3,29.98,WNW,300,1.0,10.0,85,0.00,,,0.11,278.0,meteohub,2013-03-31 20:25:00,
2013-03-31 13:30:00,59.5,54.7,29.98,WNW,284,3.0,10.0,84,0.00,,,0.11,313.0,meteohub,2013-03-31 20:30:00,
2013-03-31 13:35:00,59.7,54.1,29.98,WNW,295,2.0,10.0,82,0.00,,,0.11,373.0,meteohub,2013-03-31 20:35:00,
2013-03-31 13:40:00,60.6,54.5,29.97,WSW,248,3.0,10.0,80,0.00,,,0.11,497.0,meteohub,2013-03-31 20:40:00,
2013-03-31 13:45:00,61.5,54.3,29.97,West,269,6.0,10.0,77,0.00,,,0.11,759.0,meteohub,2013-03-31 20:45:00,
2013-03-31 13:50:00,62.4,54.3,29.97,SW,219,4.0,10.0,75,0.00,,,0.11,1288.0,meteohub,2013-03-31 20:50:00,
2013-03-31 13:55:00,63.1,53.2,29.96,SW,219,11.0,12.0,70,0.00,,,0.11,650.0,meteohub,2013-03-31 20:55:00,
2013-03-31 14:00:00,63.1,52.9,29.96,South,174,11.0,18.0,69,0.00,,,0.11,772.0,meteohub,2013-03-31 21:00:00,
2013-03-31 14:05:00,63.1,52.3,29.96,SSW,192,10.0,18.0,68,0.00,,,0.11,722.0,meteohub,2013-03-31 21:05:00,
2013-03-31 14:10:00,63.0,52.7,29.96,WSW,246,14.0,21.0,69,0.01,,,0.12,722.0,meteohub,2013-03-31 21:10:00,
2013-03-31 14:16:00,63.1,52.3,29.96,SW,224,14.0,21.0,68,0.01,,,0.12,301.0,meteohub,2013-03-31 21:16:00,
2013-03-31 14:21:00,62.8,52.9,29.96,South,175,6.0,19.0,70,0.01,,,0.12,186.0,meteohub,2013-03-31 21:21:00,
2013-03-31 14:26:00,62.1,53.6,29.96,ESE,114,3.0,19.0,74,0.01,,,0.12,190.0,meteohub,2013-03-31 21:26:00,
2013-03-31 14:31:00,61.5,54.0,29.95,ENE,74,2.0,17.0,76,0.01,,,0.12,165.0,meteohub,2013-03-31 21:31:00,
2013-03-31 14:36:00,61.3,54.1,29.96,East,98,3.0,14.0,77,0.01,,,0.12,107.0,meteohub,2013-03-31 21:36:00,
2013-03-31 14:41:00,61.3,54.1,29.96,SSW,196,6.0,6.0,77,0.01,,,0.12,142.0,meteohub,2013-03-31 21:41:00,
2013-03-31 14:46:00,61.3,53.8,29.96,South,178,0.0,6.0,76,0.01,,,0.12,476.0,meteohub,2013-03-31 21:46:00,
2013-03-31 14:51:00,62.1,53.6,29.96,East,92,2.0,6.0,74,0.01,,,0.12,246.0,meteohub,2013-03-31 21:51:00,
2013-03-31 14:56:00,61.5,53.6,29.95,SSW,203,2.0,7.0,75,0.01,,,0.12,192.0,meteohub,2013-03-31 21:56:00,
2013-03-31 15:01:00,61.7,53.2,29.96,South,186,2.0,7.0,74,0.01,,,0.12,269.0,meteohub,2013-03-31 22:01:00,
2013-03-31 15:06:00,61.9,52.3,29.96,South,186,4.0,8.0,71,0.01,,,0.12,352.0,meteohub,2013-03-31 22:06:00,
2013-03-31 15:11:00,62.1,51.8,29.95,WSW,248,9.0,16.0,69,0.00,,,0.12,381.0,meteohub,2013-03-31 22:11:00,
2013-03-31 15:16:00,62.2,52.0,29.95,SSW,204,6.0,16.0,69,0.00,,,0.12,501.0,meteohub,2013-03-31 22:16:00,
2013-03-31 15:21:00,62.8,51.6,29.95,SE,142,9.0,16.0,67,0.00,,,0.12,462.0,meteohub,2013-03-31 22:21:00,
2013-03-31 15:26:00,62.4,52.2,29.95,SSW,209,15.0,19.0,69,0.00,,,0.12,362.0,meteohub,2013-03-31 22:26:00,
2013-03-31 15:31:00,61.9,51.6,29.95,SW,219,10.0,20.0,69,0.00,,,0.12,292.0,meteohub,2013-03-31 22:31:00,
2013-03-31 15:36:00,61.3,51.1,29.95,SSE,156,11.0,20.0,69,0.00,,,0.12,243.0,meteohub,2013-03-31 22:36:00,
2013-03-31 15:41:00,60.8,50.9,29.95,SW,230,14.0,24.0,70,0.00,,,0.12,229.0,meteohub,2013-03-31 22:41:00,
2013-03-31 15:46:00,60.6,50.7,29.95,SSW,207,10.0,24.0,70,0.00,,,0.12,566.0,meteohub,2013-03-31 22:46:00,
2013-03-31 15:51:00,61.0,51.1,29.95,SW,227,10.0,24.0,70,0.00,,,0.12,540.0,meteohub,2013-03-31 22:51:00,
2013-03-31 15:56:00,61.0,51.1,29.95,SW,227,14.0,20.0,70,0.00,,,0.12,388.0,meteohub,2013-03-31 22:56:00,
2013-03-31 16:02:00,60.6,50.7,29.94,South,188,14.0,22.0,70,0.00,,,0.12,388.0,meteohub,2013-03-31 23:02:00,
2013-03-31 16:07:00,60.4,51.4,29.94,NW,307,12.0,24.0,72,0.00,,,0.12,320.0,meteohub,2013-03-31 23:07:00,
2013-03-31 16:12:00,60.3,51.3,29.94,South,173,11.0,26.0,72,0.00,,,0.12,348.0,meteohub,2013-03-31 23:12:00,
2013-03-31 16:17:00,60.1,51.4,29.94,SW,226,12.0,26.0,73,0.00,,,0.12,260.0,meteohub,2013-03-31 23:17:00,
2013-03-31 16:22:00,59.7,51.1,29.94,SE,134,6.0,26.0,73,0.00,,,0.12,230.0,meteohub,2013-03-31 23:22:00,
2013-03-31 16:27:00,59.7,51.4,29.94,SSW,197,11.0,21.0,74,0.00,,,0.12,218.0,meteohub,2013-03-31 23:27:00,
2013-03-31 16:32:00,59.2,51.3,29.94,South,183,14.0,20.0,75,0.00,,,0.12,200.0,meteohub,2013-03-31 23:32:00,
2013-03-31 16:37:00,58.8,51.3,29.94,SW,218,12.0,23.0,76,0.00,,,0.12,181.0,meteohub,2013-03-31 23:37:00,
2013-03-31 16:42:00,58.8,51.3,29.94,SW,230,6.0,23.0,76,0.00,,,0.12,167.0,meteohub,2013-03-31 23:42:00,
2013-03-31 16:47:00,58.8,51.6,29.94,South,189,12.0,22.0,77,0.00,,,0.12,244.0,meteohub,2013-03-31 23:47:00,
2013-03-31 16:52:00,58.6,51.4,29.94,SSW,209,13.0,20.0,77,0.00,,,0.12,388.0,meteohub,2013-03-31 23:52:00,
2013-03-31 16:57:00,59.2,52.0,29.94,SSE,152,7.0,20.0,77,0.00,,,0.12,390.0,meteohub,2013-03-31 23:57:00,
2013-03-31 17:02:00,59.2,52.0,29.94,SSW,202,7.0,18.0,77,0.00,,,0.12,278.0,meteohub,2013-04-01 00:02:00,
2013-03-31 17:07:00,59.0,51.8,29.94,SW,236,15.0,17.0,77,0.00,,,0.00,225.0,meteohub,2013-04-01 00:07:00,
2013-03-31 17:12:00,58.6,51.4,29.94,SSE,160,5.0,17.0,77,0.00,,,0.00,230.0,meteohub,2013-04-01 00:12:00,
2013-03-31 17:17:00,58.8,52.0,29.94,SSW,200,7.0,22.0,78,0.00,,,0.00,246.0,meteohub,2013-04-01 00:17:00,
2013-03-31 17:22:00,59.2,52.0,29.94,SSW,194,9.0,22.0,77,0.00,,,0.00,264.0,meteohub,2013-04-01 00:22:00,
2013-03-31 17:27:00,59.5,52.3,29.94,WSW,247,12.0,17.0,77,0.00,,,0.00,197.0,meteohub,2013-04-01 00:27:00,
2013-03-31 17:32:00,59.5,52.0,29.94,South,182,6.0,18.0,76,0.00,,,0.00,167.0,meteohub,2013-04-01 00:32:00,
2013-03-31 17:37:00,59.5,52.0,29.94,South,188,10.0,18.0,76,0.00,,,0.00,158.0,meteohub,2013-04-01 00:37:00,
2013-03-31 17:42:00,59.4,51.8,29.94,SW,215,14.0,18.0,76,0.00,,,0.00,255.0,meteohub,2013-04-01 00:42:00,
2013-03-31 17:47:00,59.5,52.0,29.94,SSW,213,5.0,18.0,76,0.00,,,0.00,236.0,meteohub,2013-04-01 00:47:00,
2013-03-31 17:52:00,59.5,52.0,29.94,SSW,203,10.0,18.0,76,0.00,,,0.00,102.0,meteohub,2013-04-01 00:52:00,
2013-03-31 17:57:00,59.5,52.0,29.94,SW,230,9.0,17.0,76,0.00,,,0.00,151.0,meteohub,2013-04-01 00:57:00,
2013-03-31 18:02:00,59.0,51.8,29.94,SSE,151,9.0,18.0,77,0.00,,,0.00,123.0,meteohub,2013-04-01 01:02:00,
2013-03-31 18:07:00,58.5,51.6,29.94,South,180,22.0,22.0,78,0.00,,,0.00,169.0,meteohub,2013-04-01 01:07:00,
2013-03-31 18:13:00,57.9,51.4,29.94,SSW,209,7.0,24.0,79,0.00,,,0.00,146.0,meteohub,2013-04-01 01:13:00,
2013-03-31 18:18:00,57.7,51.3,29.95,WSW,238,11.0,24.0,79,0.00,,,0.00,155.0,meteohub,2013-04-01 01:18:00,
2013-03-31 18:23:00,57.7,51.6,29.95,SW,222,10.0,24.0,80,0.00,,,0.00,88.0,meteohub,2013-04-01 01:23:00,
2013-03-31 18:28:00,57.7,51.6,29.95,SW,229,11.0,23.0,80,0.00,,,0.00,49.0,meteohub,2013-04-01 01:28:00,
2013-03-31 18:33:00,57.6,51.8,29.95,SSE,160,5.0,22.0,81,0.00,,,0.00,35.0,meteohub,2013-04-01 01:33:00,
2013-03-31 18:38:00,57.6,51.8,29.95,WSW,239,9.0,18.0,81,0.00,,,0.00,44.0,meteohub,2013-04-01 01:38:00,
2013-03-31 18:43:00,57.6,52.2,29.95,SSW,200,9.0,18.0,82,0.00,,,0.00,60.0,meteohub,2013-04-01 01:43:00,
2013-03-31 18:48:00,57.4,52.0,29.95,SSW,211,17.0,17.0,82,0.00,,,0.00,58.0,meteohub,2013-04-01 01:48:00,
2013-03-31 18:53:00,56.8,51.8,29.95,SW,233,7.0,17.0,83,0.00,,,0.00,44.0,meteohub,2013-04-01 01:53:00,
2013-03-31 18:58:00,56.7,51.8,29.95,SW,227,10.0,20.0,84,0.00,,,0.00,28.0,meteohub,2013-04-01 01:58:00,
2013-03-31 19:03:00,56.5,52.0,29.95,WSW,244,5.0,20.0,85,0.00,,,0.00,14.0,meteohub,2013-04-01 02:03:00,
2013-03-31 19:08:00,56.5,51.6,29.95,WSW,248,10.0,20.0,84,0.00,,,0.00,5.0,meteohub,2013-04-01 02:08:00,
2013-03-31 19:13:00,56.3,51.8,29.95,WSW,241,5.0,16.0,85,0.00,,,0.00,7.0,meteohub,2013-04-01 02:13:00,
2013-03-31 19:18:00,56.1,51.6,29.95,WSW,246,7.0,16.0,85,0.00,,,0.00,7.0,meteohub,2013-04-01 02:18:00,
2013-03-31 19:23:00,55.9,51.8,29.95,SSW,200,4.0,17.0,86,0.00,,,0.00,5.0,meteohub,2013-04-01 02:23:00,
2013-03-31 19:28:00,55.9,51.8,29.95,SSW,211,3.0,17.0,86,0.00,,,0.00,5.0,meteohub,2013-04-01 02:28:00,
2013-03-31 19:33:00,55.9,51.8,29.95,SSW,213,6.0,17.0,86,0.00,,,0.00,0.0,meteohub,2013-04-01 02:33:00,
2013-03-31 19:38:00,55.9,51.8,29.95,South,190,5.0,14.0,86,0.00,,,0.00,0.0,meteohub,2013-04-01 02:38:00,
2013-03-31 19:43:00,55.9,51.4,29.95,SSE,165,4.0,9.0,85,0.00,,,0.00,0.0,meteohub,2013-04-01 02:43:00,
2013-03-31 19:48:00,55.9,51.4,29.95,SSW,202,5.0,8.0,85,0.00,,,0.00,0.0,meteohub,2013-04-01 02:48:00,
2013-03-31 19:54:00,55.9,51.4,29.95,SW,233,6.0,9.0,85,0.00,,,0.00,0.0,meteohub,2013-04-01 02:54:00,
2013-03-31 19:59:00,55.9,51.4,29.95,SSW,194,8.0,10.0,85,0.00,,,0.00,0.0,meteohub,2013-04-01 02:59:00,
2013-03-31 20:04:00,55.9,51.4,29.95,SW,223,6.0,14.0,85,0.00,,,0.00,0.0,meteohub,2013-04-01 03:04:00,
2013-03-31 20:09:00,55.9,51.8,29.95,SW,223,10.0,16.0,86,0.00,,,0.00,0.0,meteohub,2013-04-01 03:09:00,
2013-03-31 20:14:00,55.9,51.8,29.95,SW,231,7.0,16.0,86,0.00,,,0.00,0.0,meteohub,2013-04-01 03:14:00,
2013-03-31 20:19:00,55.9,51.8,29.95,SW,226,11.0,16.0,86,0.00,,,0.00,0.0,meteohub,2013-04-01 03:19:00,
2013-03-31 20:24:00,55.9,51.8,29.95,SSW,200,1.0,13.0,86,0.00,,,0.00,0.0,meteohub,2013-04-01 03:24:00,
2013-03-31 20:29:00,55.9,52.2,29.95,South,189,3.0,11.0,87,0.00,,,0.00,0.0,meteohub,2013-04-01 03:29:00,
2013-03-31 20:34:00,55.9,52.2,29.95,SSW,210,5.0,11.0,87,0.00,,,0.00,0.0,meteohub,2013-04-01 03:34:00,
2013-03-31 20:39:00,55.9,52.2,29.96,SW,219,5.0,10.0,87,0.00,,,0.00,0.0,meteohub,2013-04-01 03:39:00,
2013-03-31 20:44:00,55.9,52.2,29.96,SSW,209,7.0,10.0,87,0.00,,,0.00,0.0,meteohub,2013-04-01 03:44:00,
2013-03-31 20:49:00,55.9,51.8,29.96,South,187,7.0,11.0,86,0.00,,,0.00,0.0,meteohub,2013-04-01 03:49:00,
2013-03-31 20:54:00,55.8,52.0,29.96,SSW,196,1.0,14.0,87,0.00,,,0.00,0.0,meteohub,2013-04-01 03:54:00,
2013-03-31 20:59:00,55.8,52.0,29.96,SW,222,3.0,14.0,87,0.00,,,0.00,0.0,meteohub,2013-04-01 03:59:00,
2013-03-31 21:00:00,55.8,52.0,29.97,SSW,197,2.0,14.0,87,0.00,,,0.00,0.0,meteohub,2013-04-01 04:00:00,
2013-03-31 21:05:00,55.8,52.0,29.97,SSE,161,1.0,10.0,87,0.00,,,0.00,0.0,meteohub,2013-04-01 04:05:00,
2013-03-31 21:10:00,55.8,52.0,29.97,SSW,197,0.0,10.0,87,0.00,,,0.00,0.0,meteohub,2013-04-01 04:10:00,
2013-03-31 21:13:00,55.6,51.8,29.97,WSW,254,0.0,10.0,87,0.00,,,0.00,0.0,meteohub,2013-04-01 04:13:00,
2013-03-31 21:18:00,55.6,51.8,29.97,SSW,205,9.0,9.0,87,0.00,,,0.00,0.0,meteohub,2013-04-01 04:18:00,
2013-03-31 21:23:00,55.6,51.8,29.97,SW,230,4.0,10.0,87,0.00,,,0.00,0.0,meteohub,2013-04-01 04:23:00,
2013-03-31 21:28:00,55.6,51.8,29.97,SW,236,5.0,11.0,87,0.00,,,0.00,0.0,meteohub,2013-04-01 04:28:00,
2013-03-31 21:33:00,55.6,51.8,29.97,SSW,204,3.0,11.0,87,0.00,,,0.00,0.0,meteohub,2013-04-01 04:33:00,
2013-03-31 21:38:00,55.6,51.8,29.97,SSW,209,9.0,11.0,87,0.00,,,0.00,0.0,meteohub,2013-04-01 04:38:00,
2013-03-31 21:43:00,55.4,51.6,29.97,SW,223,6.0,14.0,87,0.00,,,0.00,0.0,meteohub,2013-04-01 04:43:00,
2013-03-31 21:48:00,55.4,51.6,29.97,South,180,3.0,14.0,87,0.00,,,0.00,0.0,meteohub,2013-04-01 04:48:00,
2013-03-31 21:53:00,55.2,51.4,29.97,SSW,197,6.0,14.0,87,0.00,,,0.00,0.0,meteohub,2013-04-01 04:53:00,
2013-03-31 21:58:00,55.2,51.4,29.97,South,179,2.0,11.0,87,0.00,,,0.00,0.0,meteohub,2013-04-01 04:58:00,
2013-03-31 22:03:00,55.2,51.4,29.97,SSW,207,6.0,10.0,87,0.00,,,0.00,0.0,meteohub,2013-04-01 05:03:00,
2013-03-31 22:08:00,55.2,51.4,29.98,SW,221,4.0,10.0,87,0.00,,,0.00,0.0,meteohub,2013-04-01 05:08:00,
2013-03-31 22:13:00,55.2,51.4,29.98,SSW,196,4.0,10.0,87,0.00,,,0.00,0.0,meteohub,2013-04-01 05:13:00,
2013-03-31 22:18:00,55.4,51.6,29.97,SSW,198,3.0,10.0,87,0.00,,,0.00,0.0,meteohub,2013-04-01 05:18:00,
2013-03-31 22:23:00,55.4,51.6,29.98,South,188,6.0,10.0,87,0.00,,,0.00,0.0,meteohub,2013-04-01 05:23:00,
2013-03-31 22:28:00,55.4,51.6,29.97,West,263,4.0,12.0,87,0.00,,,0.00,0.0,meteohub,2013-04-01 05:28:00,
2013-03-31 22:33:00,55.6,51.8,29.98,SSW,192,3.0,12.0,87,0.00,,,0.00,0.0,meteohub,2013-04-01 05:33:00,
2013-03-31 22:38:00,55.6,52.2,29.98,WSW,240,7.0,12.0,88,0.00,,,0.00,0.0,meteohub,2013-04-01 05:38:00,
2013-03-31 22:43:00,55.4,52.0,29.98,South,184,6.0,10.0,88,0.00,,,0.00,0.0,meteohub,2013-04-01 05:43:00,
2013-03-31 22:48:00,55.2,52.0,29.98,SSW,209,14.0,14.0,89,0.00,,,0.00,0.0,meteohub,2013-04-01 05:48:00,
2013-03-31 22:53:00,55.2,52.0,29.98,SSW,211,6.0,14.0,89,0.00,,,0.00,0.0,meteohub,2013-04-01 05:53:00,
2013-03-31 22:58:00,55.0,51.8,29.98,SSW,213,7.0,14.0,89,0.00,,,0.00,0.0,meteohub,2013-04-01 05:58:00,
2013-03-31 23:03:00,55.0,51.8,29.98,WSW,250,5.0,14.0,89,0.00,,,0.00,0.0,meteohub,2013-04-01 06:03:00,
2013-03-31 23:08:00,55.0,51.8,29.98,WSW,258,4.0,13.0,89,0.00,,,0.00,0.0,meteohub,2013-04-01 06:08:00,
2013-03-31 23:13:00,55.0,52.2,29.98,WSW,246,5.0,13.0,90,0.00,,,0.00,0.0,meteohub,2013-04-01 06:13:00,
2013-03-31 23:18:00,54.9,52.0,29.98,SW,232,4.0,13.0,90,0.00,,,0.00,0.0,meteohub,2013-04-01 06:18:00,
2013-03-31 23:23:00,54.9,52.0,29.98,West,260,2.0,13.0,90,0.00,,,0.00,0.0,meteohub,2013-04-01 06:23:00,
2013-03-31 23:28:00,54.7,51.8,29.98,WSW,254,5.0,9.0,90,0.00,,,0.00,0.0,meteohub,2013-04-01 06:28:00,
2013-03-31 23:33:00,54.7,52.2,29.98,SW,226,5.0,6.0,91,0.00,,,0.00,0.0,meteohub,2013-04-01 06:33:00,
2013-03-31 23:39:00,54.7,52.2,29.98,South,173,2.0,9.0,91,0.00,,,0.00,0.0,meteohub,2013-04-01 06:39:00,
2013-03-31 23:44:00,54.5,52.0,29.98,WSW,240,2.0,9.0,91,0.01,,,0.01,0.0,meteohub,2013-04-01 06:44:00,
2013-03-31 23:49:00,54.5,52.2,29.98,WSW,245,2.0,9.0,92,0.01,,,0.01,0.0,meteohub,2013-04-01 06:49:00,
2013-03-31 23:54:00,54.3,52.0,29.98,WSW,243,2.0,5.0,92,0.01,,,0.01,0.0,meteohub,2013-04-01 06:54:00,
2013-03-31 23:59:00,54.3,52.3,29.98,SW,236,2.0,7.0,93,0.08,,,0.08,0.0,meteohub,2013-04-01 06:59:00,